This is the latest recevied weather packets stored in our database for station/object WK1F-2. If no packets are shown the sender has not sent any weather packets the latest 1 day(s).
| Time | Temp. | Humidity | Pressure | Rain* | Wind** | Luminosity | Snow |
|---|---|---|---|---|---|---|---|
| 1777993644 | 24.44° C | 53% | 1017.4 hPa | 0 mm | 1.34 m/s, 196° | - | - |
| 1777993344 | 23.89° C | 52% | 1017.4 hPa | 0 mm | 1.79 m/s, 103° | - | - |
| 1777993046 | 23.89° C | 54% | 1017.4 hPa | 0 mm | 1.34 m/s, 53° | - | - |
| 1777992744 | 23.89° C | 55% | 1017.4 hPa | 0 mm | 2.68 m/s, 121° | - | - |
| 1777992444 | 23.89° C | 55% | 1017.3 hPa | 0 mm | 3.58 m/s, 105° | - | - |
| 1777992144 | 23.89° C | 54% | 1017.4 hPa | 0 mm | 2.68 m/s, 80° | - | - |
| 1777991844 | 23.89° C | 53% | 1017.3 hPa | 0 mm | 2.24 m/s, 69° | - | - |
| 1777991544 | 23.89° C | 55% | 1017.3 hPa | 0 mm | 2.24 m/s, 74° | - | - |
| 1777991255 | 23.89° C | 54% | 1017.3 hPa | 0 mm | 0.45 m/s, 180° | - | - |
| 1777990944 | 23.33° C | 55% | 1017.4 hPa | 0 mm | 2.24 m/s, 163° | - | - |
| 1777990644 | 23.33° C | 58% | 1017.4 hPa | 0 mm | 1.79 m/s, 159° | - | - |
| 1777990344 | 23.33° C | 59% | 1017.2 hPa | 0 mm | 0.89 m/s, 201° | - | - |
| 1777990044 | 23.33° C | 58% | 1017.3 hPa | 0 mm | 2.68 m/s, 125° | - | - |
| 1777989744 | 23.33° C | 61% | 1017.2 hPa | 0 mm | 1.34 m/s, 111° | - | - |
| 1777989443 | 22.78° C | 61% | 1017.2 hPa | 0 mm | 1.34 m/s, 98° | - | - |
| 1777989144 | 22.78° C | 62% | 1017.2 hPa | 0 mm | 0.89 m/s, 117° | - | - |
| 1777988843 | 22.78° C | 62% | 1017.2 hPa | 0 mm | 3.58 m/s, 156° | - | - |
| 1777988543 | 22.78° C | 63% | 1017.2 hPa | 0 mm | 3.13 m/s, 112° | - | - |
| 1777988243 | 22.78° C | 64% | 1017.2 hPa | 0 mm | 3.13 m/s, 173° | - | - |
| 1777987943 | 22.78° C | 64% | 1017.2 hPa | 0 mm | 1.79 m/s, 156° | - | - |
| 1777987643 | 22.22° C | 65% | 1017.1 hPa | 0 mm | 2.24 m/s, 124° | - | - |
| 1777987343 | 22.22° C | 66% | 1017.1 hPa | 0 mm | 3.13 m/s, 121° | - | - |
| 1777987043 | 22.22° C | 69% | 1017.1 hPa | 0 mm | 4.02 m/s, 163° | - | - |
| 1777986743 | 21.67° C | 69% | 1017 hPa | 0 mm | 1.79 m/s, 80° | - | - |
| 1777986443 | 21.11° C | 72% | 1016.9 hPa | 0 mm | 2.24 m/s, 117° | - | - |
* Rain latest hour (hover to see other rain measurements)
** Current wind speed in m/s (hover to see current wind gust speed)